This demonstration page uses our WeatherBlox Daily Observations layout. Learn more.

Left ArrowRight Arrow

39.92423, -83.80882

Hourly Observations for August 1, 2022

Temp ( °F °C ) Dew Point ( °F °C ) Humidity (%) Winds ( mph kmh ) Pressure ( in mb ) Visibility ( mi km ) Precip ( " mm )
12:56 am 00:56 Clear N/A N/A N/A SSW 5 7 N/A 10 16 0.00 0.00
1:56 am 01:56 Cloudy N/A N/A N/A SSW 5 7 N/A 9 14 0.00 0.00
2:56 am 02:56 Partly Cloudy N/A N/A N/A Calm N/A 7 11 0.00 0.00
3:56 am 03:56 Hazy N/A N/A N/A Calm N/A 5 8 0.00 0.00
4:56 am 04:56 Mostly Cloudy with Haze N/A N/A N/A Calm N/A 4 6 0.00 0.00
5:32 am 05:32 Mostly Cloudy with Haze N/A N/A N/A Calm N/A 5 8 0.00 0.00
5:56 am 05:56 Cloudy with Haze N/A N/A N/A SSW 3 6 N/A 6 10 0.00 0.00
6:09 am 06:09 Cloudy with Haze N/A N/A N/A SSW 3 6 N/A 6 10 0.00 0.00
6:39 am 06:39 Cloudy with Haze 66 19 N/A N/A SSW 5 7 30.00 1016 4 6 0.00 0.00
6:49 am 06:49 Cloudy with Haze 66 19 N/A N/A SSW 5 7 29.99 1015 4 6 0.00 0.00
6:56 am 06:56 Cloudy with Haze 66 19 N/A N/A SSW 3 6 29.99 1016 4 6 0.00 0.00
7:12 am 07:12 Cloudy with Haze 66 19 N/A N/A S 3 6 29.99 1015 4 6 0.00 0.00
7:56 am 07:56 Cloudy with Haze 70 21 N/A N/A SW 7 11 29.99 1016 4 6 0.00 0.00
8:15 am 08:15 Cloudy with Haze 70 21 N/A N/A SW 8 13 29.98 1015 4 6 0.00 0.00
8:54 am 08:54 Cloudy with Mist and Fog 70 21 N/A N/A SW 9 15 29.98 1015 2 2 0.29 7.37
8:56 am 08:56 Cloudy with Mist and Fog 70 21 N/A N/A SW 8 13 30.00 1016 2 2 0.29 7.37
9:04 am 09:04 Cloudy with Mist and Fog 70 21 N/A N/A SW 9 15 29.99 1016 3 5 0.00 0.00
9:28 am 09:28 Cloudy with Mist and Fog 70 21 N/A N/A SW 10 17 29.98 1015 3 4 0.00 0.00
9:50 am 09:50 Cloudy with Haze 72 22 N/A N/A SW 8 13 29.96 1015 4 6 0.00 0.00
9:56 am 09:56 Cloudy with Haze 72 22 N/A N/A SW 9 15 29.98 1015 5 8 0.00 0.00
10:16 am 10:16 Cloudy 72 22 N/A N/A SSW 9 15 29.95 1014 8 13 0.00 0.00
10:40 am 10:40 Cloudy 75 24 75 24 100 100 SW 10 17 29.94 1014 10 16 0.00 0.00
10:56 am 10:56 Cloudy 74 23.3 74 23.3 100 100 SW 8 13 29.97 1015 10 16 0.00 0.00
11:13 am 11:13 Cloudy 75 24 75 24 100 100 SW 14 22 29.95 1014 10 16 0.00 0.00
11:56 am 11:56 Mostly Cloudy with Nearby Thunderstorms 73 23 N/A N/A SW 15 24 29.95 1014 7 11 0.02 0.51
12:10 pm 12:10 Mostly Cloudy with Light Rain 73 23 N/A N/A SW 6 9 29.93 1014 10 16 0.00 0.00
12:56 pm 12:56 Mostly Sunny 77 25 N/A N/A WSW 10 17 29.89 1012 10 16 0.00 0.00
1:56 pm 13:56 Sunny 80 26.7 74 23.3 82 82 SW 16 26 29.88 1012 10 16 0.00 0.00
2:56 pm 14:56 Mostly Cloudy 82 27.8 73 22.8 74 74 SW 14 22 29.87 1012 10 16 0.00 0.00
3:56 pm 15:56 Cloudy 81 27.2 72 22.2 74 74 WSW 13 20 29.87 1011 10 16 0.00 0.00
4:56 pm 16:56 Cloudy 81 27.2 70 21.1 69 69 W 16 26 29.88 1012 10 16 0.00 0.00
5:56 pm 17:56 Cloudy 79 26.1 70 21.1 74 74 WSW 13 20 29.88 1012 10 16 0.00 0.00
6:56 pm 18:56 Mostly Sunny 80 26.7 72 22.2 76 76 W 12 19 29.90 1013 10 16 0.00 0.00
7:56 pm 19:56 Sunny 78 25.6 73 22.8 85 85 WSW 8 13 29.90 1013 10 16 0.00 0.00
8:56 pm 20:56 Clear 73 23 N/A N/A SW 6 9 29.90 1013 10 16 0.00 0.00
9:56 pm 21:56 Clear 73 23 N/A N/A SW 7 11 29.90 1013 10 16 0.00 0.00
10:56 pm 22:56 Clear N/A N/A N/A SSW 6 9 N/A 10 16 0.00 0.00
11:56 pm 23:56 Mostly Clear N/A N/A N/A SW 7 11 N/A 10 16 0.00 0.00

Powered by AerisWeather